Location: Waldport
(44.4270°N, 124.0680°W)
Time: 21:22:17
(UTC-07:00)

Meteor 1-26 Rocket - Visible Passes

Search period start: 30 June 2016 00:00
Search period end: 10 July 2016 00:00
Orbit: 832 x 904 km, 81.3° (Epoch: 30 June)

Date Brightness Start Highest point End Pass type
(mag) Time Alt. Az. Time Alt. Az. Time Alt. Az.
30 Jun 4.3 00:17:07 10° NNW 00:22:43 69° W 00:24:47 40° SSW visible
30 Jun 6.0 22:28:07 10° NNE 22:31:58 18° ENE 22:35:36 11° ESE visible
01 Jul 4.3 00:10:12 10° NNW 00:15:48 68° W 00:17:59 38° SSW visible
01 Jul 6.0 22:21:09 10° NNE 22:25:03 19° ENE 22:28:49 11° ESE visible
02 Jul 4.4 00:03:16 10° NNW 00:08:52 67° W 00:11:11 36° SSW visible
02 Jul 5.9 22:14:10 10° NNE 22:18:08 19° ENE 22:22:02 10° ESE visible
02 Jul 4.4 23:56:20 10° NNW 00:01:56 66° W 00:04:24 34° SSW visible
03 Jul 5.9 22:07:12 10° NNE 22:11:13 19° ENE 22:15:14 10° ESE visible
03 Jul 4.4 23:49:23 10° NNW 23:55:00 65° W 23:57:39 32° SSW visible
04 Jul 5.9 22:00:14 10° NNE 22:04:17 20° ENE 22:08:22 10° ESE visible
04 Jul 4.5 23:42:27 10° NNW 23:48:04 64° W 23:50:55 30° SSW visible
05 Jul 5.8 21:53:16 10° NNE 21:57:22 20° ENE 22:01:30 10° ESE visible
05 Jul 4.5 23:35:32 10° NNW 23:41:08 63° W 23:44:10 28° SSW visible
06 Jul 5.8 21:46:18 10° NNE 21:50:27 20° ENE 21:54:38 10° ESE visible
06 Jul 4.6 23:28:35 10° NNW 23:34:12 62° W 23:37:28 26° SSW visible
07 Jul 5.8 21:39:19 10° NNE 21:43:32 21° ENE 21:47:46 10° ESE visible
07 Jul 4.6 23:21:39 10° NNW 23:27:16 61° W 23:30:47 24° SSW visible
08 Jul 5.8 21:32:21 10° NNE 21:36:37 21° ENE 21:40:54 10° ESE visible
08 Jul 4.6 23:14:43 10° NNW 23:20:20 60° W 23:24:07 21° S visible
09 Jul 4.7 23:07:47 10° NNW 23:13:24 59° W 23:17:28 19° S visible
